Portage Invitational 2014

Portage, MI

Portage Invitational 2014 vs Portage Invitational 2012

Aggregate Data Points
Difference This Meet That Meet
Overall Athletes -797 1944 2741
Overall Average -12.39 20:19.41 20:31.80
1st-10th Place -8.24 15:22.40 15:30.64
1st-25th Place -3.22 15:39.60 15:42.82
1st-50th Place +0.28 15:53.20 15:52.92
1st-100th Place +2.17 16:09.76 16:07.59
Common Athletes -- -- 500
Ran Faster 186 343 157
Ran Season Best -80 118 198
Average Time -29.35 19:20.73 19:50.09
Median Time -30.40 18:56.00 19:26.40
Middle 80% Times -31.42 19:07.78 19:39.19
Top 10% Times -37.08 16:08.64 16:45.72
Top 25% Times -41.40 16:38.78 17:20.18
Top 50% Times -41.10 17:22.84 18:03.94
Bottom 50% Times -17.60 21:18.63 21:36.23
Bottom 25% Times -13.60 22:40.39 22:53.99
Bottom 10% Times -5.12 24:16.48 24:21.60
Average Difference -29.35 -- --
Median Difference +49.50 -- --
Middle 80% Difference -29.96 -- --
Top 10% Difference -27.12 -- --
Top 50% Difference -34.90 -- --
Top 25% Difference -29.46 -- --
Top 50% Difference -34.90 -- --
Bottom 50% Difference -23.81 -- --
Bottom 25% Difference -17.82 -- --
Bottom 10% Difference -26.74 -- --

Performances of Common Athletes
Athlete Team Difference This Meet That Meet
Grant FISHER Grand Blanc -59.20 14:43.00 15:42.20
Colin Burdette Hil. Davidson -31.60 15:17.00 15:48.60
Anthony Berry Traverse City Central -52.70 15:22.00 16:14.70
Jesse Hersha Concord -20.30 15:23.00 15:43.30
Connor Wuori Portage Central -42.60 15:23.00 16:05.60
Isaac Harding Rockford -1:01.80 15:32.00 16:33.80
Kevin Hall Saline -47.90 15:40.00 16:27.90
Matt Thomas Port Huron Northern -23.70 15:44.00 16:07.70
Logan Kleam Woodhaven High School -1:26.90 15:51.00 17:17.90
Austin Sargent Cedar Springs -14.30 15:53.00 16:07.30
Logan Jurgens Grandville Calvin Christian -2:11.20 15:53.00 18:04.20
Abe Visser Grandville Calvin Christian -1:29.40 15:55.00 17:24.40
Josh Nickerson Hartland -1:17.60 15:57.00 17:14.60
Luke Hoover Hil. Davidson -37.90 15:58.00 16:35.90
Damien Halverson Hesperia -31.20 15:59.00 16:30.20
Johnny McKeown Hil. Davidson +8.20 16:11.00 16:02.80
Jacob Pettinga Saugatuck -1:23.90 16:03.00 17:26.90
Cam McAuliffe Traverse City Central -12.80 16:06.00 16:18.80
Ethan Taljonick Clio -2:08.60 16:08.00 18:16.60
Arik Lafave Hesperia -2:20.40 16:09.00 18:29.40
Austin Wicker Pinckney -1:03.80 16:11.00 17:14.80
Isaac Harris Pinckney -43.20 16:12.00 16:55.20
Ryan Torok Linden -27.70 16:12.00 16:39.70
Paul Burke Rockford -2:24.60 16:14.00 18:38.60
Lucas Arrivo Ann Arbor Pioneer -18.40 16:15.00 16:33.40
Matt Smith Grandville -25.80 16:16.00 16:41.80
Jesse Saxton Grant -2:06.50 16:17.00 18:23.50
Matthew Levitt East Grand Rapids -36.50 16:17.00 16:53.50
Garett Smith Hudsonville -2:35.60 16:19.00 18:54.60
Nick Hirschenberger Traverse City West -39.70 16:20.00 16:59.70
Brock Eves Hillsdale Academy -53.20 16:21.00 17:14.20
Benny BriseƱo Grand Rapids Christian -20.90 16:22.00 16:42.90
Nick Jewell St. Joseph -26.20 16:22.00 16:48.20
Grant Gabriel Rockford -1:28.40 16:24.00 17:52.40
Kael Fineout Okemos -1:16.60 16:24.00 17:40.60
David Trimas Chelsea -36.60 16:25.00 17:01.60
Ryan Gibson Jackson Lumen Christi -22.00 16:28.00 16:50.00
Grayson Harding Rockford -1:45.40 16:28.00 18:13.40
Erik Edwards St. Joseph -11.40 16:28.00 16:39.40
Dylan Mosher Clio -1:12.70 16:28.00 17:40.70
Doug Hollett Kalamazoo Christian +13.10 16:42.00 16:28.90
Zach Terpstra Grand Rapids Christian -20.20 16:30.00 16:50.20
Jack Twarozynski Grand Ledge -3:17.60 16:31.00 19:48.60
Kyler Phillips Clare -48.70 16:31.00 17:19.70
Jonathan Voth Grand Blanc -1:53.20 16:32.00 18:25.20
Noah Kramer Hartland -1:14.60 16:32.00 17:46.60
Anthony Wohlfeil Monroe -1:25.20 16:32.00 17:57.20
Kevin Spicer-torres Clare -56.50 16:33.00 17:29.50
Brendan Daly Watervliet -50.50 16:33.00 17:23.50
Jake Keena Kingsley -1.50 16:34.00 16:35.50
Jimmy Seekamp Traverse City West -23.70 16:34.00 16:57.70
Colin Mcnally Ann Arbor Gabriel Richard -22.00 16:35.00 16:57.00
Nathan Goschka Grand Ledge -2:54.10 16:35.00 19:29.10
Mitch Kolito DeWitt -24.60 16:37.00 17:01.60
Stone Mathers Ann Arbor Pioneer -1:37.90 16:37.00 18:14.90
Ryan Lowing Zeeland West -18.70 16:39.00 16:57.70
Peter Pelon Ionia -24.50 16:39.00 17:03.50
Chase Schweyer Pinckney -26.90 16:40.00 17:06.90
Max Smith Newaygo -31.20 16:41.00 17:12.20
Noah Robotham Benzie Central -55.80 16:41.00 17:36.80
Joe Hughes Traverse City West -1:03.90 16:41.00 17:44.90
Kyle Chamberlain Hudsonville -49.40 16:42.00 17:31.40
Nick Berry Brighton -47.30 16:43.00 17:30.30
Kyle Bailey Benzie Central -17.20 16:43.00 17:00.20
Colin Reichenbach Rockford -45.70 16:43.00 17:28.70
Nadji Butris Jackson Lumen Christi -3:13.80 16:43.00 19:56.80
Jordan Anderson Bear Lake -58.30 16:44.00 17:42.30
Patrick Jonker Grand Rapids Christian -35.30 16:45.00 17:20.30
Jim Vandyke Grand Rapids Christian -7.90 16:45.00 16:52.90
Matt Ring Schoolcraft -42.30 16:46.00 17:28.30
Luke Schwass Ludington -1:21.90 16:47.00 18:08.90
Adam Audet Temperance-Bedford -1:36.10 16:47.00 18:23.10
Samuel Cayen Saline -1:24.60 16:49.00 18:13.60
Chance Miller Hastings -1:46.10 16:50.00 18:36.10
Luke Rotarius Hartland -42.30 16:50.00 17:32.30
Ryan Silvestri Napoleon -1:25.10 16:50.00 18:15.10
Caleb Barker Pewamo-Westphalia -1:19.60 16:51.00 18:10.60
Brendan Lenhardt Grand Rapids Forest Hills Eastern -46.20 16:51.00 17:37.20
Austin Shepherd Hanover-Horton -7.20 16:52.00 16:59.20
Miles Mcdonald Hartland -2:35.70 16:52.00 19:27.70
Lucas Crisanti Hanover-Horton -11.20 16:53.00 17:04.20
Dario Potter Ann Arbor Pioneer -43.10 16:53.00 17:36.10
Nolan Meister East Kentwood -36.30 16:54.00 17:30.30
Gregory Lingle Temperance-Bedford -1:19.10 16:54.00 18:13.10
Zack Richards Comstock +2.10 16:58.00 16:55.90
Tom Anderson Hartland -45.20 16:56.00 17:41.20
Bryan Adamovicz Saline -32.40 16:56.00 17:28.40
Kory Johnson Woodhaven High School -1:39.30 16:58.00 18:37.30
Ian Otto Portage Northern -1:05.90 17:00.00 18:05.90
Michael Bank Carleton Airport -1:08.50 17:01.00 18:09.50
Nick Hartstang Pinckney -42.90 17:03.00 17:45.90
Cody Clemens Portage Northern -2:25.20 17:04.00 19:29.20
Perry Carter Wayland Union -1:25.40 17:04.00 18:29.40
Antonio Wenglikowski Bay City Western -1:07.80 17:05.00 18:12.80
Brian Stubelt Portage Central -24.40 17:05.00 17:29.40
Nick Angerman Ann Arbor Skyline -1:34.50 17:06.00 18:40.50
Brent Petersen Grand Haven -40.40 17:06.00 17:46.40
Aaron Strieff Zeeland West +56.40 18:03.00 17:06.60
Joey Hutchins Concord -1:00.20 17:07.00 18:07.20
Jacob Johnson Ann Arbor Pioneer -1:50.10 17:07.00 18:57.10
Sam Traver Potterville +29.30 17:37.00 17:07.70
Flynn Darby Caledonia +1.20 17:09.00 17:07.80
Nick Johnson Grand Haven +11.20 17:19.00 17:07.80
Andrew Polasek Newaygo -1:01.30 17:08.00 18:09.30
Jordan Diephouse Grand Haven -23.60 17:08.00 17:31.60
Will Jibson Ann Arbor Pioneer -1:05.30 17:09.00 18:14.30
Angelo Leon East Kentwood -1:12.30 17:09.00 18:21.30
Jarek Brower Zeeland West -46.60 17:09.00 17:55.60
Jason Zellers Jenison +45.50 17:55.00 17:09.50
Mitchell Parsons Grandville +13.40 17:23.00 17:09.60
Jeff Torano Kalamazoo Central +28.00 17:38.00 17:10.00
Andrew Goodspeed Fremont -35.80 17:11.00 17:46.80
John Miles Grand Haven -43.40 17:13.00 17:56.40
Adam Clemens Coldwater -2:05.40 17:13.00 19:18.40
Will Warmoth Spring Lake -1:05.40 17:13.00 18:18.40
Isaiah Fox Grand Rapids Catholic Central -54.70 17:14.00 18:08.70
Robert Conner Monroe Jefferson -1:03.40 17:14.00 18:17.40
Joseph Britt Holland Black River -8.10 17:15.00 17:23.10
Travis Sutton Jonesville -30.80 17:15.00 17:45.80
Connor Schwartz Hudsonville Unity Christian +8.50 17:24.00 17:15.50
Ben Jensen Ludington -58.10 17:16.00 18:14.10
Luke Peterson Holland Christian -38.00 17:16.00 17:54.00
Eric Poth Marlette -1:21.30 17:16.00 18:37.30
Zach Abbee Hanover-Horton -1:07.20 17:16.00 18:23.20
Austin Brittain Breckenridge -25.00 17:17.00 17:42.00
Marshal Rademacer Ionia +6.30 17:24.00 17:17.70
Joe Brown Saugatuck -1:09.90 17:18.00 18:27.90
Brenden Jones Holland Black River -1:01.00 17:20.00 18:21.00
Jordan Zamarron Ionia -12.20 17:20.00 17:32.20
Drew Donovan Celina +9.70 17:31.00 17:21.30
Ronnie Collins Hastings -20.30 17:22.00 17:42.30
Alex Eby Carleton Airport -1:28.20 17:22.00 18:50.20
Wayne Matunas Portage Northern -1:16.40 17:23.00 18:39.40
Luke Gilliland Leslie +1:35.30 18:59.00 17:23.70
Jordan Query Traverse City Central -2.70 17:24.00 17:26.70
Andrew Hutchinson Shepherd -2:40.00 17:25.00 20:05.00
Luis Dekryger Grand Rapids South Christian +4.60 17:30.00 17:25.40
Billy Dowd Napoleon -52.10 17:26.00 18:18.10
Cameron Jackson Grand Rapids Forest Hills Central -19.60 17:26.00 17:45.60
Nate Schipper Hudsonville -15.60 17:28.00 17:43.60
Luke Bottomley Dexter +1.60 17:30.00 17:28.40
Owen Glass Wayland Union -41.40 17:29.00 18:10.40
Tyler Sepanik Traverse City Central -2:05.50 17:31.00 19:36.50
Elliott Hanke Bridgman -1:22.80 17:31.00 18:53.80
Karl Hanke Bridgman -2:47.50 17:31.00 20:18.50
Ethan Parr Battle Creek Lakeview -2:16.40 17:31.00 19:47.40
Kyle Hamilton Pinckney -19.20 17:33.00 17:52.20
Levi Cole Bangor -1:00.10 17:34.00 18:34.10
Brandon Van Oosten Battle Creek Lakeview +14.00 17:48.00 17:34.00
Zach Huber Temperance-Bedford -1:26.30 17:35.00 19:01.30
Stephen Hoffman East Grand Rapids -9.70 17:35.00 17:44.70
Alex Hoop Jackson Lumen Christi -21.80 17:36.00 17:57.80
Patrick Lynch Watervliet -5.70 17:36.00 17:41.70
Patrick Cecil St. Joseph Lake Michigan Catholic -20.70 17:36.00 17:56.70
Shayden Fisher Grandville +10.00 17:46.00 17:36.00
Zach Capulong Jenison -1:45.40 17:36.00 19:21.40
Tom Terns Brighton +38.30 18:15.00 17:36.70
Taylor Terborg Grandville Calvin Christian -12.60 17:37.00 17:49.60
Josh Bostwick Brighton -1:26.40 17:38.00 19:04.40
Brian Connelly Jenison -1:13.10 17:39.00 18:52.10
Demeatrice Webster East Kentwood -25.20 17:39.00 18:04.20
Faruq Schieber Kalamazoo Central -58.80 17:39.00 18:37.80
Luke Sprinkle Kalamazoo Loy Norrix -3:01.30 17:39.00 20:40.30
Shayne Palmer Napoleon +7.20 17:47.00 17:39.80
Riley Vanpelt New Buffalo -1:15.80 17:43.00 18:58.80
Matt Mathis Remus Chippewa Hills -2:04.70 17:43.00 19:47.70
Jon Haadsma Battle Creek Lakeview -0.80 17:45.00 17:45.80
Cooper Thieme Grand Rapids Forest Hills Eastern -2:07.90 17:45.00 19:52.90
Tony Bomia Temperance-Bedford -2:44.30 17:45.00 20:29.30
Eric Farhadi Caledonia +0.60 17:46.00 17:45.40
Gabe Lamer Grandville Calvin Christian -1:32.80 17:46.00 19:18.80
Conner Silvestri Napoleon -37.70 17:47.00 18:24.70
Mackenzie Weiler Cedar Springs +12.70 18:00.00 17:47.30
Rolando Hernandez Eau Claire -53.20 17:49.00 18:42.20
Elliott Lipe Bath -1:12.60 17:50.00 19:02.60
Hunter Perrin Kalamazoo Christian +19.60 18:11.00 17:51.40
Alec Badgley Potterville -1:01.00 17:52.00 18:53.00
Allan Dowling Hanover-Horton -1:20.20 17:52.00 19:12.20
Adam Maxwell Kentwood Grand River Preparatory -37.80 17:52.00 18:29.80
Kelton Eldred Blanchard Montabella -20.20 17:53.00 18:13.20
Chase Field Clare -1:06.90 17:54.00 19:00.90
Adam Curtis Big Rapids Crossroads Charter -1:11.00 17:54.00 19:05.00
Ethan Aerts Coldwater -1:21.20 17:54.00 19:15.20
Nathan Mulder Holland Christian -1.40 17:56.00 17:57.40
Valentin Casiano Watervliet -14.90 17:57.00 18:11.90
Will Jackson Hartland -27.80 17:57.00 18:24.80
Jeremy Bond Charyl Stockwell Academy +3.20 18:01.00 17:57.80
Cole Menck Lawton +38.10 18:36.00 17:57.90
Durecki Richard Kingsley -12.30 17:58.00 18:10.30
Joseph Lundquist Three Rivers +1:02.70 19:01.00 17:58.30
Zach Feyen Caledonia +8.60 18:08.00 17:59.40
Ben Olsen Coloma -1:18.40 18:00.00 19:18.40
John Hughes Vicksburg -20.00 18:01.00 18:21.00
Branley Mafuta Bath -2:01.50 18:04.00 20:05.50
Pavan Dave Woodhaven High School -7:13.60 18:06.00 25:19.60
Connor Green East Kentwood +33.90 18:40.00 18:06.10
Zane Brooks Benzie Central +40.20 18:51.00 18:10.80
Ryan Vanappledorn Holland Christian -38.30 18:12.00 18:50.30
Cody Ladd Schoolcraft -21.60 18:12.00 18:33.60
Ashley Ko Traverse City Central -39.70 18:13.00 18:52.70
Kelli Jackson Hudsonville -23.50 18:14.00 18:37.50
Jason Gilder Grand Rapids South Christian -26.90 18:14.00 18:40.90
Mathew Koenig Bay City Western -28.20 18:15.00 18:43.20
Kellen Rau Grandville -42.80 18:15.00 18:57.80
Alex Beauchamp Hastings -1:44.60 18:15.00 19:59.60
Gavin Marr Breckenridge -1:25.10 18:15.00 19:40.10
Nathan Swartz Marcellus -2:12.60 18:16.00 20:28.60
Alexis Miller Grand Rapids South Christian +1:14.40 19:31.00 18:16.60
Jacob Jagielski Hillsdale Academy -7.10 18:18.00 18:25.10
Allison Vroon Holland Black River +37.40 18:56.00 18:18.60
Miguel Flores Hartford -27.60 18:19.00 18:46.60
Rohan Dandavati Holland Black River -2:26.10 18:20.00 20:46.10
Shane Gutkowski Frankenmuth -56.60 18:20.00 19:16.60
Jared Zink Jenison -28.40 18:21.00 18:49.40
Ian Fox Flint Powers Catholic -29.50 18:21.00 18:50.50
Owen Webb Hillsdale Academy -2:07.00 18:21.00 20:28.00
Austin Yunker Mendon -1:24.10 18:22.00 19:46.10
Riley Waterman Schoolcraft -2:18.90 18:23.00 20:41.90
Miguel Santos Kalamazoo Loy Norrix -1:10.70 18:26.00 19:36.70
Josh Carpenter Kalamazoo Hackett -1:15.50 18:26.00 19:41.50
Travis Klitchman Eau Claire -1:27.80 18:28.00 19:55.80
Nick Mathis Remus Chippewa Hills -26.10 18:29.00 18:55.10
Hannah Cummings Saline -22.40 18:29.00 18:51.40
Hunter VanKlompenberg Grandville Calvin Christian +2.80 18:33.00 18:30.20
Cole Verrett Bear Lake -36.30 18:31.00 19:07.30
Kristopher Cavender Jackson Lumen Christi -35.00 18:33.00 19:08.00
Warren Krettek Bridgman -1:36.50 18:34.00 20:10.50
Nolan Troyer Centreville -2:36.60 18:34.00 21:10.60
Jakob Roberts Concord -4:33.60 18:35.00 23:08.60
Gillian Walter Saline +21.00 18:56.00 18:35.00
Jacob Evans Schoolcraft -1:14.60 18:35.00 19:49.60
Tyler Frisbie Mendon -1:24.70 18:36.00 20:00.70
Levi Prater Leslie +21.00 18:57.00 18:36.00
Nolan Vanderzwaag Holland Christian -23.10 18:36.00 18:59.10
Morgan Posthuma Grand Rapids Forest Hills Central -7.60 18:37.00 18:44.60
Madison Marciniak Bay City Western +53.60 19:31.00 18:37.40
Bailey Johnson Jenison -14.40 18:38.00 18:52.40
Will Libs Ann Arbor Gabriel Richard -14.50 18:38.00 18:52.50
Troy Davis Leslie -1:09.10 18:38.00 19:47.10
Sam Richardson Breckenridge +15.10 18:54.00 18:38.90
Jake Spitsbergen Parchment +2:01.50 20:42.00 18:40.50
Kyle Smith Benzie Central -31.30 18:42.00 19:13.30
Steven Henley Hopkins -32.70 18:42.00 19:14.70
Austin Salome Comstock -7.00 18:44.00 18:51.00
Gabrielle Perrin Vicksburg +32.10 19:17.00 18:44.90
Erin O'Keefe Spring Lake -32.20 18:45.00 19:17.20
Zach Owen Leslie -1:35.90 18:47.00 20:22.90
Charles Goole Lawton -7.50 18:47.00 18:54.50
Julian Torres Lawton +55.50 19:45.00 18:49.50
Abby Rentschler Saline +2:17.30 21:07.00 18:49.70
Kelli Nesky Hudsonville Unity Christian -0.10 18:50.00 18:50.10
Hunter Rosema Hesperia -31.10 18:51.00 19:22.10
Josh Fitch Frankenmuth +21.90 19:13.00 18:51.10
Marshall Lipe Bath -1:37.40 18:52.00 20:29.40
Marius Vanderhoff Portage Northern -26.50 18:52.00 19:18.50
Jesus Amado Ann Arbor Gabriel Richard -56.50 18:52.00 19:48.50
Alison McLean Dexter -13.00 18:52.00 19:05.00
Justin Threatt Newaygo -23.50 18:52.00 19:15.50
Devon Bruck Carleton Airport -1:13.70 18:53.00 20:06.70
Tim Doetsch Napoleon -22.30 18:54.00 19:16.30
Ryan Waggoner Flint Powers Catholic -5.10 18:54.00 18:59.10
Jared Bair Bear Lake +13.00 19:08.00 18:55.00
Nick Giles South Haven +1:02.40 19:58.00 18:55.60
Jordan Mattarella Traverse City Central +51.70 19:48.00 18:56.30
Cameron Andrews Kalamazoo Central +43.00 19:40.00 18:57.00
Morgan Benoit Rockford +49.50 19:47.00 18:57.50
Mikayla Hostetler Richland Gull Lake +1:39.70 20:38.00 18:58.30
Brandon Gray Hastings +12.80 19:12.00 18:59.20
Freddie Burchett Hartford +30.40 19:30.00 18:59.60
Graceanne Tarsa Traverse City Central +16.60 19:17.00 19:00.40
Nick Vazquez Lawrence +18.30 19:19.00 19:00.70
Kerianne Schoff Rockford +1:33.10 20:34.00 19:00.90
Emily Starck Remus Chippewa Hills +38.60 19:40.00 19:01.40
Darvious Wallace Kalamazoo Loy Norrix -31.50 19:02.00 19:33.50
Taylor Thrush Shepherd +5.40 19:09.00 19:03.60
Alexa Vanderhoff Portage Northern +1:04.00 20:09.00 19:05.00
Anthony Olexa Breckenridge -41.90 19:07.00 19:48.90
Zeke Tomblin Napoleon -2:09.40 19:07.00 21:16.40
Ben Carpenter Marcellus -2:15.90 19:09.00 21:24.90
Emma Doorn Grandville Calvin Christian +19.90 19:29.00 19:09.10
Aubrey Penn Jackson Lumen Christi +4.30 19:15.00 19:10.70
Dallas Miller Newaygo +42.20 19:54.00 19:11.80
Lily Fell Richland Gull Lake -36.10 19:14.00 19:50.10
Austin Ebrecht Coloma -1:18.50 19:14.00 20:32.50
Claire Brouwer Grand Rapids Christian -5.40 19:15.00 19:20.40
Rachael Weber Hopkins +1:01.40 20:18.00 19:16.60
Mike Wertheimer Clare -1:48.70 19:17.00 21:05.70
Olivia Bordewyk Caledonia -16.50 19:18.00 19:34.50
Allison Utting Grandville -46.30 19:19.00 20:05.30
Quintin Lee Leslie -3:00.40 19:20.00 22:20.40
Haley Dack Leslie +13.50 19:34.00 19:20.50
Abby Fifarek Traverse City Grand Traverse Academy -1:22.30 19:22.00 20:44.30
Chase Pitcher Charyl Stockwell Academy -13.50 19:22.00 19:35.50
Cale Gray Charyl Stockwell Academy -1:38.30 19:23.00 21:01.30
Abigail Bowman Grand Rapids Forest Hills Eastern +51.80 20:15.00 19:23.20
Rebecca Estep Bay City Western +30.70 19:55.00 19:24.30
Jake Kerstetter Grass Lake +41.80 20:07.00 19:25.20
Lauren Allard Grand Rapids Forest Hills Eastern +2:17.60 21:43.00 19:25.40
Natalie Napolillo Rockford -51.80 19:26.00 20:17.80
Jessica Gockley Traverse City West +11.60 19:38.00 19:26.40
Brad Wynalda Grand Rapids NorthPointe Christian -21.70 19:27.00 19:48.70
Stephanie Schaub Benzie Central -1:35.60 19:31.00 21:06.60
Kaela Theut East Grand Rapids +35.60 20:07.00 19:31.40
Jeffrey Bos North Muskegon -1:07.50 19:33.00 20:40.50
Alexandra Ammann Dexter -18.10 19:34.00 19:52.10
Tegan Jackson Kentwood Grand River Preparatory -29.40 19:34.00 20:03.40
Laura Estrada Bay City Western -53.00 19:34.00 20:27.00
Ally Destefano Grand Rapids Forest Hills Central -3.20 19:35.00 19:38.20
Ezra Amstutz Constantine +12.70 19:49.00 19:36.30
Konrad Stein Kingsley -18.50 19:37.00 19:55.50
Jordan Lee DeWitt +4.40 19:42.00 19:37.60
Katya Bohatch Grand Rapids Forest Hills Northern +17.50 19:56.00 19:38.50
Annie Fanta Bath +31.30 20:10.00 19:38.70
Jensen Mceldowney Jackson Lumen Christi +18.20 19:57.00 19:38.80
Mckenzie Smoyer Napoleon -1:41.00 19:39.00 21:20.00
Connor Durow North Muskegon -1:44.50 19:40.00 21:24.50
Avery Lowe North Muskegon -11.10 19:40.00 19:51.10
Zack Kemp Grand Ledge -2:32.80 19:41.00 22:13.80
Dj Bosse Edwardsburg +32.80 20:14.00 19:41.20
Jennifer Bos Grandville Calvin Christian +1:00.60 20:42.00 19:41.40
Caitlin Clark Jackson Lumen Christi +10.00 19:53.00 19:43.00
Dakota Miller Hopkins -1:19.00 19:43.00 21:02.00
Elizabeth Greve Dexter +48.10 20:32.00 19:43.90
Maria Kuiper Holland Christian -52.60 19:45.00 20:37.60
Kelsey Schroeder Okemos +2:43.90 22:30.00 19:46.10
Jessie Armstrong St. Joseph +54.50 20:41.00 19:46.50
Keena Gilbert Bear Lake +46.40 20:34.00 19:47.60
Reese Sample Coloma -2:45.00 19:48.00 22:33.00
Lyric Bronkema Byron Center -10.80 19:50.00 20:00.80
Josephine Fiore Kalamazoo Loy Norrix -24.20 19:50.00 20:14.20
Joel Macyauski Lawrence -46.80 19:50.00 20:36.80
Gabby Tavolacci Watervliet +47.50 20:38.00 19:50.50
Isaac Nausadis Newaygo -44.90 19:52.00 20:36.90
Lucy Ankenbauer Kalamazoo Hackett +12.90 20:05.00 19:52.10
Jessica Stroede Hanover-Horton -1:01.50 19:53.00 20:54.50
Ben Swanson Kent City +21.80 20:16.00 19:54.20
Shayne Mann Cedar Springs -1:13.30 19:55.00 21:08.30
Logan St. John Remus Chippewa Hills +14.20 20:10.00 19:55.80
Hannah Hazelbach Caledonia +15.70 20:14.00 19:58.30
Mckaya Groenwald Bear Lake -1:00.20 19:59.00 20:59.20
Clayton Conner Hopkins -2:52.50 19:59.00 22:51.50
Hannah Kenny Grand Haven +13.90 20:15.00 20:01.10
Lacie Piekarski Spring Lake +15.80 20:18.00 20:02.20
Kaitlyn Rademacher Ionia -1:08.30 20:03.00 21:11.30
Alyssa Schwartz Grand Rapids South Christian +3.40 20:07.00 20:03.60
Natalie Purcell Flint Powers Catholic -3:56.50 20:04.00 24:00.50
Mikayla Rowden Grand Haven +13.00 20:18.00 20:05.00
Olivia Conway Grand Ledge -6.90 20:06.00 20:12.90
Maddie Haas Pinckney -43.20 20:06.00 20:49.20
Mackenzie Kelly Marlette +1:08.30 21:15.00 20:06.70
Hayley Buckhout Richland Gull Lake +53.20 21:03.00 20:09.80
Kayla Gercak Portage Northern -37.70 20:10.00 20:47.70
Nathan Morgan Charyl Stockwell Academy -20.50 20:10.00 20:30.50
Amanda Sorokin Caledonia -0.70 20:12.00 20:12.70
Jenna Coon Celina +17.80 20:34.00 20:16.20
Rachel Gohn Allendale -39.20 20:18.00 20:57.20
Emily Yoxheimer Jackson Lumen Christi -48.90 20:21.00 21:09.90
Brooke Carrier Spring Lake +22.00 20:45.00 20:23.00
Autumn Lewis Carleton Airport -1:00.90 20:27.00 21:27.90
Brock Mueller Delton Kellogg -25.30 20:27.00 20:52.30
Mason Haas Marcellus +2:42.80 23:10.00 20:27.20
Miranda Hamman Napoleon -55.50 20:29.00 21:24.50
Ally Stapleton Grand Rapids Forest Hills Central -37.80 20:30.00 21:07.80
Annemarie Maher Grand Ledge -39.40 20:31.00 21:10.40
Robin Declercq Kalamazoo Hackett -1:13.20 20:32.00 21:45.20
Sophie Morin Portage Northern +32.80 21:05.00 20:32.20
Catherine Stapleton Grand Rapids Forest Hills Central -38.20 20:33.00 21:11.20
Kaylee Shattuck Ionia +1:00.80 21:37.00 20:36.20
Sammi Cleary Delton Kellogg -2:54.90 20:38.00 23:32.90
Rebekka Golisch Grand Ledge -45.30 20:40.00 21:25.30
Chaney Manarin Hanover-Horton -28.60 20:40.00 21:08.60
Grace Glagola Ann Arbor Gabriel Richard +25.80 21:07.00 20:41.20
Kensington Garvey Blanchard Montabella +12.70 20:54.00 20:41.30
Nina Sapienza Ann Arbor Gabriel Richard +9.60 20:52.00 20:42.40
Ellie Best Portage Central -23.70 20:44.00 21:07.70
Eric Hoeberling Delton Kellogg -1:40.40 20:44.00 22:24.40
Samuel Brouwer Kalamazoo Christian +7.20 20:52.00 20:44.80
Kate Krug East Grand Rapids +4.50 20:50.00 20:45.50
Kelli Smith Grand Rapids NorthPointe Christian -54.80 20:48.00 21:42.80
Sylvia Knight Portage Central +1:50.70 22:39.00 20:48.30
Rachel Reiber Breckenridge +52.70 21:41.00 20:48.30
Miedema Kennedy Hopkins -21.10 20:49.00 21:10.10
Emily O'leary Traverse City West +1:27.50 22:17.00 20:49.50
Abigail Moeggenberg Shepherd -1:19.10 20:50.00 22:09.10
Quinn Hall Traverse City West +23.50 21:14.00 20:50.50
Ana Swanson Kent City +33.20 21:24.00 20:50.80
Alycia Peterson Bear Lake -21.30 20:51.00 21:12.30
Samantha Campbell Hanover-Horton +2.60 20:56.00 20:53.40
Cecelia Batterbee Grand Rapids Forest Hills Central -8.30 20:55.00 21:03.30
Sidney Towalski Monroe -44.30 20:55.00 21:39.30
Shelbi Dyke Allendale +19.70 21:15.00 20:55.30
Shelby Burnett Carleton Airport -3:14.90 20:56.00 24:10.90
Corinne Schrotenboer Traverse City West -0.60 21:00.00 21:00.60
Breanna Varker Schoolcraft +53.90 21:54.00 21:00.10
Hannah Matuz Kalamazoo Central -2:48.00 21:02.00 23:50.00
Hayley Stone Monroe Jefferson -1:07.60 21:04.00 22:11.60
Matt Mitchell Buchanan -1:48.40 21:04.00 22:52.40
Ashley Nye Benzie Central +50.40 21:56.00 21:05.60
Mary Wheeler Bridgman +4.30 21:12.00 21:07.70
Stormi Samuels Jenison +4.10 21:12.00 21:07.90
Inez Samuels Jenison +3.00 21:11.00 21:08.00
Zoe Feighner Leslie -41.90 21:08.00 21:49.90
Sidney Baxter Battle Creek Lakeview +1:01.60 22:11.00 21:09.40
Sloane Lynch Monroe +49.10 21:59.00 21:09.90
Brooke Bengel Pewamo-Westphalia -2:16.60 21:11.00 23:27.60
Amanda Boelman Portage Central +1:02.10 22:14.00 21:11.90
Aaron Lawrence Jonesville -29.20 21:12.00 21:41.20
Sarah Bellinger Shepherd -1:07.00 21:12.00 22:19.00
Libby Springer Saugatuck +15.10 21:28.00 21:12.90
Megan Riegle Battle Creek Lakeview -18.90 21:13.00 21:31.90
Sarah Kempa Hillsdale Academy -1:18.50 21:13.00 22:31.50
Teddy Mcneir Battle Creek St. Philip -1:46.30 21:16.00 23:02.30
Taylor Elenbaas Zeeland West +2:15.50 23:33.00 21:17.50
Leanna Schafer Pewamo-Westphalia +8.20 21:26.00 21:17.80
Abby Hendrix South Haven -1:59.00 21:18.00 23:17.00
Alyssa Ohanesian Traverse City West -17.00 21:21.00 21:38.00
Faith Brown Bath +22.40 21:45.00 21:22.60
Audrey Pohl Pewamo-Westphalia -5.10 21:23.00 21:28.10
Elsie Jorgensen Eau Claire -3:07.10 21:23.00 24:30.10
Nick Kridler Kent City -1:58.60 21:24.00 23:22.60
Marilyn Gallegos Bangor -26.10 21:25.00 21:51.10
Tayah Schuette Hanover-Horton +20.20 21:47.00 21:26.80
Madison Stone Monroe Jefferson -33.70 21:28.00 22:01.70
Monica Leduc Flint Powers Catholic -26.30 21:28.00 21:54.30
Mickala Kohtz Wayland Union +58.20 22:28.00 21:29.80
Hannah Sperry Hesperia -10.60 21:30.00 21:40.60
Jesscia Eddings Pinckney -12.10 21:30.00 21:42.10
Megan Grimes Delton Kellogg -48.70 21:32.00 22:20.70
Chelsey Feaganes Monroe Jefferson -51.50 21:33.00 22:24.50
Lynden Hamstra Jenison -56.40 21:33.00 22:29.40
Daniel Humphries Grass Lake -3:43.20 21:33.00 25:16.20
Brittney Johnson Watervliet +2.00 21:36.00 21:34.00
Tessa Staggemeier Napoleon -52.40 21:35.00 22:27.40
Kim Buskirk Blanchard Montabella -3:06.30 21:35.00 24:41.30
Keerstyn Bonner Grandville Calvin Christian -14.10 21:35.00 21:49.10
Austin Macomber Grass Lake -1:14.10 21:38.00 22:52.10
Shannon Mcdonnell Jackson Lumen Christi +26.30 22:05.00 21:38.70
Lauren Wright Portage Central -27.80 21:42.00 22:09.80
Alex Morales Hartford +1:08.30 22:52.00 21:43.70
Emily Gowin Hesperia +2.30 21:47.00 21:44.70
Shaun Marie Banaszak Grand Rapids Catholic Central -1:58.40 21:46.00 23:44.40
Madison Mcphee Clare +55.10 22:43.00 21:47.90
Alyson Fink Bear Lake -1:07.80 21:48.00 22:55.80
Jenna Gales Mendon -2:41.80 21:49.00 24:30.80
Jade Melling Hanover-Horton -6.30 21:53.00 21:59.30
Alaina Albert Napoleon +1:21.00 23:14.00 21:53.00
Corrine Stevens Fremont +2:12.80 24:06.00 21:53.20
Mackenzie Walter Frankenmuth +59.70 22:53.00 21:53.30
Mackenzie Fairbanks Napoleon +22.20 22:17.00 21:54.80
Riley Raburn Jackson Lumen Christi -21.60 21:57.00 22:18.60
Ellie Wilson North Muskegon +3:39.40 25:39.00 21:59.60
Rachel Niesen Kalamazoo Hackett -1:14.70 22:00.00 23:14.70
Lydia Bekius Zeeland West +8.60 22:09.00 22:00.40
Carolyn Kirchner Three Rivers -2.10 22:02.00 22:04.10
Hannah Doederlein Carleton Airport +34.50 22:39.00 22:04.50
Hannah Campbell Kalamazoo Loy Norrix +52.70 23:00.00 22:07.30
Kaycee Jackson Hesperia +22.60 22:30.00 22:07.40
Brittany Udell Edwardsburg +1:13.70 23:22.00 22:08.30
Brooke Schooley Hesperia +1:54.60 24:03.00 22:08.40
Elisabeth Barrett Frankenmuth +46.70 22:57.00 22:10.30
Marissa Mohney Centreville -31.90 22:15.00 22:46.90
Andrew Clark Marlette +20.90 22:43.00 22:22.10
Joelle Humpula Remus Chippewa Hills +3:03.50 25:30.00 22:26.50
Mary Cappelletti Saugatuck -1:30.40 22:28.00 23:58.40
Katy Thomas Edwardsburg +1:54.30 24:23.00 22:28.70
Elysa Cole East Kentwood -19.00 22:32.00 22:51.00
Blake Kuzma Remus Chippewa Hills -28.10 22:37.00 23:05.10
Alyvia Karcher Blanchard Montabella +2:23.30 25:01.00 22:37.70
Paige Gould Clare +1:33.90 24:13.00 22:39.10
Rain Barnes Three Rivers -7.00 22:46.00 22:53.00
Jodi Stoffer Kalamazoo Christian +2:46.10 25:33.00 22:46.90
Jamie Barrett Three Rivers +1:33.20 24:22.00 22:48.80
Savana Falls Leslie -48.90 22:52.00 23:40.90
Samantha Ludlam Hopkins +5.60 23:01.00 22:55.40
Milagro Guerra Kentwood Grand River Preparatory +12.40 23:08.00 22:55.60
Alex Bieri Hesperia -1:07.30 22:59.00 24:06.30
Carley Lott Lawton +9.30 23:10.00 23:00.70
Yadira Rodriguez Bangor -49.70 23:13.00 24:02.70
Kylie Ostrofsky Frankenmuth +2:24.10 25:39.00 23:14.90
Sandra Cesco Concord -1:50.00 23:20.00 25:10.00
Kaela Morlock Watervliet -44.60 23:30.00 24:14.60
Tiffany Welch Schoolcraft +1:24.60 24:56.00 23:31.40
Colleen Flynn Schoolcraft -8.90 23:42.00 23:50.90
Stephanie Olexa Breckenridge -20.80 24:09.00 24:29.80
Carli Shalosky Hillsdale Academy -10.20 24:10.00 24:20.20
Claire Laurenz Breckenridge +37.90 24:48.00 24:10.10
Kelly Haskins Coldwater -2:12.30 24:15.00 26:27.30
Elizabeth Hasted South Haven -1:02.00 24:20.00 25:22.00
Courtney Kangas St. Joseph Lake Michigan Catholic -49.20 24:21.00 25:10.20
Rebecca Chupp Centreville +1:05.60 25:31.00 24:25.40
Leah Savage Galesburg-Augusta +1:07.00 25:36.00 24:29.00
Alyssa Roels Grand Rapids NorthPointe Christian -1:30.00 24:40.00 26:10.00
Melissa Mcnamara Constantine -1:38.50 24:49.00 26:27.50
Samantha Beebe Kalamazoo Christian -40.50 25:14.00 25:54.50
Mikayla Kuenzel Big Rapids Crossroads Charter +7.40 25:35.00 25:27.60
Sarah Hall Hartford -2:13.50 25:31.00 27:44.50
Savannah Healy Lawrence +2:21.00 27:58.00 25:37.00
Nicole Stark Grass Lake +1:27.20 27:07.00 25:39.80
Emma Miko Charyl Stockwell Academy +38.90 26:39.00 26:00.10
Tarah Gates Potterville +34.80 28:10.00 27:35.20